LOT186 EKCH-EPWA

Flight info

Callsign LOT186
Flight time 0h 57m
Altitude 35000
Route SIMEG9C SIMEG Z491 TELMO DCT KOLOB N195 ELPOL Y100 MALOX/N0407F230 L621 GRUDA N191 SORIX SORIX6U
Aircraft B772/H-SDE2E3FGHIJ5LORVWXY/LB1D1

Departure

Time 2026-05-04 18:36
Airport Copenhagen Kastrup Airport (EKCH)

Arrival

Time 2026-05-04 19:33
Airport Warsaw Chopin Airport (EPWA)
Time Latitude Longitude Altitude Speed Heading
2026-05-04 17:50 55.62361 12.65059 25 ft 0 kts 276°
2026-05-04 18:25 55.62361 12.65060 25 ft 0 kts 276°
2026-05-04 18:26 55.62360 12.65085 25 ft 2 kts 276°
2026-05-04 18:26 55.62358 12.65112 25 ft 2 kts 276°
2026-05-04 18:26 55.62356 12.65138 25 ft 2 kts 276°
2026-05-04 18:26 55.62355 12.65164 25 ft 2 kts 276°
2026-05-04 18:27 55.62353 12.65181 25 ft 1 kts 276°
2026-05-04 18:27 55.62357 12.65202 25 ft 1 kts 218°
2026-05-04 18:27 55.62365 12.65209 25 ft 0 kts 178°
2026-05-04 18:27 55.62371 12.65209 25 ft 0 kts 179°
2026-05-04 18:29 55.62368 12.65209 25 ft 3 kts 179°
2026-05-04 18:29 55.62306 12.65186 25 ft 13 kts 209°
2026-05-04 18:30 55.62335 12.64914 24 ft 14 kts 303°
2026-05-04 18:30 55.62341 12.64773 22 ft 10 kts 246°
2026-05-04 18:30 55.62308 12.64643 22 ft 9 kts 246°
2026-05-04 18:31 55.62293 12.64586 22 ft 0 kts 246°
2026-05-04 18:32 55.62284 12.64547 22 ft 9 kts 247°
2026-05-04 18:32 55.62240 12.64403 22 ft 0 kts 228°
2026-05-04 18:33 55.62207 12.64353 22 ft 11 kts 211°
2026-05-04 18:33 55.62091 12.64256 22 ft 23 kts 205°
2026-05-04 18:33 55.61942 12.64128 25 ft 18 kts 205°
2026-05-04 18:33 55.61818 12.64076 27 ft 13 kts 181°
2026-05-04 18:34 55.61769 12.64079 27 ft 0 kts 178°
2026-05-04 18:34 55.61757 12.64080 27 ft 3 kts 177°
2026-05-04 18:35 55.61704 12.64085 27 ft 12 kts 177°
2026-05-04 18:35 55.61610 12.64045 27 ft 18 kts 214°
2026-05-04 18:35 55.61375 12.63689 26 ft 87 kts 221°
2026-05-04 18:35 55.60698 12.62654 55 ft 164 kts 224°
2026-05-04 18:36 55.59771 12.61185 534 ft 192 kts 229°
2026-05-04 18:36 55.58772 12.59398 1277 ft 224 kts 230°
2026-05-04 18:36 55.57588 12.57496 2272 ft 236 kts 221°
2026-05-04 18:36 55.56255 12.55730 3058 ft 250 kts 216°
2026-05-04 18:37 55.54637 12.54509 3923 ft 261 kts 202°
2026-05-04 18:37 55.52920 12.53509 4901 ft 265 kts 202°
2026-05-04 18:37 55.51189 12.52517 5862 ft 267 kts 202°
2026-05-04 18:37 55.49419 12.51504 6681 ft 272 kts 202°
2026-05-04 18:38 55.47612 12.50472 6927 ft 274 kts 202°
2026-05-04 18:38 55.45754 12.49841 6945 ft 278 kts 183°
2026-05-04 18:38 55.43873 12.50620 6934 ft 285 kts 156°
2026-05-04 18:38 55.42324 12.52847 6928 ft 291 kts 129°
2026-05-04 18:39 55.41420 12.56056 7051 ft 305 kts 110°
2026-05-04 18:39 55.40797 12.59583 8120 ft 302 kts 108°
2026-05-04 18:39 55.40207 12.63099 9050 ft 304 kts 108°
2026-05-04 18:39 55.39595 12.66714 9786 ft 313 kts 109°
2026-05-04 18:40 55.38970 12.70375 10502 ft 323 kts 109°
2026-05-04 18:40 55.38300 12.74277 11006 ft 341 kts 109°
2026-05-04 18:40 55.37607 12.78309 11510 ft 357 kts 109°
2026-05-04 18:40 55.36868 12.82596 12007 ft 373 kts 109°
2026-05-04 18:41 55.36100 12.87038 12471 ft 389 kts 109°
2026-05-04 18:41 55.35303 12.91640 13068 ft 401 kts 109°
2026-05-04 18:41 55.34483 12.96371 13780 ft 408 kts 109°
2026-05-04 18:41 55.33655 13.01130 14637 ft 412 kts 109°
2026-05-04 18:42 55.32809 13.05976 15430 ft 417 kts 109°
2026-05-04 18:42 55.31966 13.10794 16214 ft 421 kts 109°
2026-05-04 18:42 55.31105 13.15698 17011 ft 426 kts 109°
2026-05-04 18:42 55.30229 13.20676 17787 ft 430 kts 109°
2026-05-04 18:43 55.29348 13.25671 18558 ft 433 kts 109°
2026-05-04 18:43 55.28396 13.30671 19236 ft 437 kts 114°
2026-05-04 18:43 55.27037 13.35370 19869 ft 440 kts 123°
2026-05-04 18:43 55.25450 13.39970 20524 ft 445 kts 124°
2026-05-04 18:44 55.23827 13.44612 21191 ft 450 kts 124°
2026-05-04 18:44 55.22733 13.47734 21619 ft 453 kts 124°
2026-05-04 18:44 55.20531 13.54008 22460 ft 460 kts 124°
2026-05-04 18:44 55.18864 13.58746 23034 ft 465 kts 125°
2026-05-04 18:45 55.17169 13.63554 23648 ft 470 kts 125°
2026-05-04 18:45 55.15449 13.68422 24268 ft 474 kts 126°
2026-05-04 18:45 55.13709 13.73340 24845 ft 479 kts 126°
2026-05-04 18:45 55.11947 13.78308 25381 ft 484 kts 126°
2026-05-04 18:46 55.10185 13.83266 25927 ft 489 kts 126°
2026-05-04 18:46 55.08354 13.88409 26498 ft 493 kts 127°
2026-05-04 18:46 55.06500 13.93603 27005 ft 499 kts 127°
2026-05-04 18:46 55.04670 13.98720 27576 ft 502 kts 127°
2026-05-04 18:47 55.02814 14.03901 28106 ft 506 kts 127°
2026-05-04 18:47 55.00946 14.09101 28582 ft 511 kts 127°
2026-05-04 18:47 54.99039 14.14400 29052 ft 516 kts 127°
2026-05-04 18:47 54.97132 14.19689 29622 ft 518 kts 128°
2026-05-04 18:48 54.95224 14.24973 30342 ft 517 kts 128°
2026-05-04 18:48 54.93325 14.30221 31032 ft 515 kts 128°
2026-05-04 18:48 54.91433 14.35437 31660 ft 514 kts 127°
2026-05-04 18:48 54.89538 14.40652 32290 ft 513 kts 127°
2026-05-04 18:49 54.87627 14.45901 33032 ft 508 kts 127°
2026-05-04 18:49 54.85760 14.51017 33781 ft 503 kts 127°
2026-05-04 18:49 54.83909 14.56083 34506 ft 499 kts 127°
2026-05-04 18:49 54.82064 14.61117 34880 ft 500 kts 126°
2026-05-04 18:50 54.80187 14.66225 34941 ft 499 kts 127°
2026-05-04 18:50 54.76507 14.76220 34944 ft 493 kts 127°
2026-05-04 18:51 54.72810 14.86210 34948 ft 496 kts 127°
2026-05-04 18:51 54.69081 14.96252 34946 ft 495 kts 127°
2026-05-04 18:52 54.65375 15.06188 34932 ft 495 kts 127°
2026-05-04 18:52 54.61656 15.16119 34949 ft 496 kts 127°
2026-05-04 18:53 54.57917 15.26067 34964 ft 495 kts 127°
2026-05-04 18:53 54.54197 15.35925 34961 ft 492 kts 127°
2026-05-04 18:54 54.50459 15.45787 34947 ft 495 kts 127°
2026-05-04 18:54 54.46690 15.55694 34964 ft 492 kts 127°
2026-05-04 18:55 54.42931 15.65535 34969 ft 494 kts 128°
2026-05-04 18:55 54.37295 15.80219 34954 ft 492 kts 128°
2026-05-04 18:56 54.33543 15.89945 34964 ft 491 kts 128°
2026-05-04 18:56 54.29779 15.99666 34982 ft 492 kts 128°
2026-05-04 18:57 54.26027 16.09315 34945 ft 492 kts 128°
2026-05-04 18:57 54.22221 16.19066 34965 ft 492 kts 128°
2026-05-04 18:58 54.18442 16.28712 34956 ft 492 kts 128°
2026-05-04 18:58 54.14622 16.38424 34953 ft 492 kts 128°
2026-05-04 18:59 54.10820 16.48050 34948 ft 493 kts 128°
2026-05-04 18:59 54.07005 16.57675 34973 ft 493 kts 128°
2026-05-04 19:00 54.03165 16.67325 34941 ft 492 kts 129°
2026-05-04 19:00 53.99284 16.77035 34941 ft 509 kts 129°
2026-05-04 19:01 53.95258 16.87061 34936 ft 522 kts 129°
2026-05-04 19:01 53.91195 16.97154 34942 ft 519 kts 129°
2026-05-04 19:02 53.87098 17.07292 34945 ft 523 kts 129°
2026-05-04 19:02 53.83018 17.17349 34944 ft 520 kts 129°
2026-05-04 19:03 53.78902 17.27450 34940 ft 521 kts 129°
2026-05-04 19:03 53.74777 17.37534 34942 ft 522 kts 128°
2026-05-04 19:04 53.70671 17.47526 34941 ft 520 kts 129°
2026-05-04 19:04 53.66552 17.57508 34941 ft 520 kts 129°
2026-05-04 19:05 53.62416 17.67488 34934 ft 520 kts 129°
2026-05-04 19:05 53.58294 17.77401 34935 ft 519 kts 129°
2026-05-04 19:06 53.54135 17.87367 34934 ft 521 kts 129°
2026-05-04 19:06 53.49985 17.97269 34927 ft 520 kts 129°
2026-05-04 19:07 53.45865 18.07248 34925 ft 520 kts 128°
2026-05-04 19:07 53.41829 18.17270 34927 ft 521 kts 128°
2026-05-04 19:08 53.37798 18.27241 34920 ft 521 kts 127°
2026-05-04 19:08 53.33734 18.37256 34934 ft 521 kts 127°
2026-05-04 19:09 53.29681 18.47204 34928 ft 520 kts 127°
2026-05-04 19:09 53.25625 18.57122 34938 ft 520 kts 127°
2026-05-04 19:10 53.21545 18.67058 34933 ft 518 kts 128°
2026-05-04 19:10 53.17448 18.76996 34933 ft 519 kts 128°
2026-05-04 19:11 53.13367 18.86857 34932 ft 517 kts 128°
2026-05-04 19:11 53.09297 18.96655 34938 ft 518 kts 127°
2026-05-04 19:12 53.03159 19.11356 34912 ft 516 kts 127°
2026-05-04 19:12 53.01150 19.16155 34525 ft 508 kts 127°
2026-05-04 19:13 52.99125 19.20978 33380 ft 513 kts 128°
2026-05-04 19:13 52.97070 19.25851 32222 ft 517 kts 128°
2026-05-04 19:13 52.95020 19.30705 31271 ft 516 kts 127°
2026-05-04 19:13 52.92995 19.35492 30399 ft 515 kts 127°
2026-05-04 19:14 52.90955 19.40310 29884 ft 506 kts 127°
2026-05-04 19:14 52.88962 19.45005 29342 ft 495 kts 128°
2026-05-04 19:14 52.86999 19.49623 28796 ft 488 kts 128°
2026-05-04 19:14 52.85064 19.54174 28218 ft 483 kts 127°
2026-05-04 19:15 52.83143 19.58684 27631 ft 478 kts 127°
2026-05-04 19:15 52.81246 19.63131 27053 ft 473 kts 127°
2026-05-04 19:15 52.79368 19.67523 26462 ft 468 kts 128°
2026-05-04 19:15 52.77507 19.71869 25875 ft 463 kts 128°
2026-05-04 19:16 52.75676 19.76140 25302 ft 458 kts 128°
2026-05-04 19:16 52.73842 19.80409 24710 ft 453 kts 128°
2026-05-04 19:16 52.72043 19.84589 24133 ft 448 kts 128°
2026-05-04 19:16 52.70233 19.88787 23557 ft 443 kts 128°
2026-05-04 19:17 52.68476 19.92857 22986 ft 439 kts 128°
2026-05-04 19:17 52.66723 19.96913 22417 ft 435 kts 128°
2026-05-04 19:17 52.64966 20.00968 21837 ft 431 kts 128°
2026-05-04 19:17 52.63231 20.04967 21260 ft 427 kts 128°
2026-05-04 19:18 52.61533 20.08876 20697 ft 423 kts 128°
2026-05-04 19:18 52.59825 20.12799 20120 ft 419 kts 128°
2026-05-04 19:18 52.58145 20.16653 19546 ft 416 kts 128°
2026-05-04 19:18 52.56469 20.20491 18983 ft 412 kts 128°
2026-05-04 19:19 52.54798 20.24313 18405 ft 409 kts 128°
2026-05-04 19:19 52.53163 20.28048 17841 ft 406 kts 128°
2026-05-04 19:19 52.51516 20.31805 17260 ft 402 kts 128°
2026-05-04 19:19 52.49894 20.35497 16687 ft 399 kts 128°
2026-05-04 19:20 52.48297 20.39130 16181 ft 395 kts 128°
2026-05-04 19:20 52.46683 20.42795 15611 ft 392 kts 128°
2026-05-04 19:20 52.45105 20.46374 15044 ft 390 kts 128°
2026-05-04 19:20 52.43522 20.49958 14488 ft 387 kts 129°
2026-05-04 19:21 52.41960 20.53489 13910 ft 384 kts 129°
2026-05-04 19:21 52.40400 20.57013 13375 ft 381 kts 129°
2026-05-04 19:21 52.38842 20.60524 12833 ft 378 kts 129°
2026-05-04 19:21 52.37313 20.63966 12289 ft 376 kts 129°
2026-05-04 19:22 52.35773 20.67429 11736 ft 373 kts 130°
2026-05-04 19:22 52.34266 20.70811 11156 ft 371 kts 130°
2026-05-04 19:22 52.32782 20.74144 10541 ft 356 kts 130°
2026-05-04 19:22 52.31366 20.77324 10315 ft 332 kts 130°
2026-05-04 19:23 52.30059 20.80257 10181 ft 310 kts 130°
2026-05-04 19:23 52.28832 20.83009 10062 ft 290 kts 130°
2026-05-04 19:23 52.27679 20.85589 9943 ft 273 kts 131°
2026-05-04 19:23 52.26540 20.88124 9721 ft 286 kts 130°
2026-05-04 19:24 52.25367 20.90725 9314 ft 290 kts 130°
2026-05-04 19:24 52.24173 20.93376 8953 ft 291 kts 130°
2026-05-04 19:24 52.22963 20.96059 8618 ft 291 kts 130°
2026-05-04 19:24 52.21769 20.98708 8292 ft 290 kts 130°
2026-05-04 19:25 52.20586 21.01327 8006 ft 288 kts 130°
2026-05-04 19:25 52.19408 21.03934 7723 ft 286 kts 130°
2026-05-04 19:25 52.18232 21.06534 7414 ft 285 kts 130°
2026-05-04 19:25 52.17065 21.09111 7108 ft 284 kts 130°
2026-05-04 19:26 52.15898 21.11670 7017 ft 273 kts 133°
2026-05-04 19:26 52.14536 21.13613 6953 ft 257 kts 151°
2026-05-04 19:26 52.13018 21.15066 6738 ft 253 kts 155°
2026-05-04 19:26 52.11465 21.16434 6499 ft 251 kts 155°
2026-05-04 19:27 52.09942 21.17763 6278 ft 249 kts 155°
2026-05-04 19:27 52.08421 21.19091 6072 ft 247 kts 155°
2026-05-04 19:27 52.06912 21.20408 5873 ft 245 kts 155°
2026-05-04 19:27 52.05419 21.21686 5628 ft 244 kts 160°
2026-05-04 19:28 52.03772 21.22079 5307 ft 235 kts 193°
2026-05-04 19:28 52.02331 21.21091 5043 ft 225 kts 221°
2026-05-04 19:28 52.01390 21.19156 4646 ft 221 kts 246°
2026-05-04 19:28 52.01114 21.16748 4191 ft 219 kts 269°
2026-05-04 19:29 52.01187 21.14284 3908 ft 219 kts 271°
2026-05-04 19:29 52.01324 21.11832 3629 ft 216 kts 282°
2026-05-04 19:29 52.01980 21.09689 3344 ft 216 kts 306°
2026-05-04 19:29 52.03186 21.08225 3044 ft 218 kts 328°
2026-05-04 19:30 52.04522 21.07157 2749 ft 212 kts 330°
2026-05-04 19:30 52.05754 21.06137 2505 ft 190 kts 328°
2026-05-04 19:30 52.06873 21.05156 2279 ft 176 kts 327°
2026-05-04 19:30 52.07926 21.04235 2051 ft 163 kts 327°
2026-05-04 19:31 52.08840 21.03442 1848 ft 141 kts 326°
2026-05-04 19:31 52.09679 21.02709 1674 ft 132 kts 326°
2026-05-04 19:31 52.10481 21.02010 1495 ft 129 kts 327°
2026-05-04 19:31 52.11261 21.01334 1318 ft 128 kts 328°
2026-05-04 19:32 52.12053 21.00658 1133 ft 128 kts 329°
2026-05-04 19:32 52.12855 20.99975 946 ft 129 kts 328°
2026-05-04 19:32 52.13649 20.99278 772 ft 129 kts 327°
2026-05-04 19:32 52.14436 20.98579 575 ft 129 kts 328°
2026-05-04 19:33 52.15237 20.97872 425 ft 131 kts 330°
2026-05-04 19:33 52.16028 20.97185 350 ft 121 kts 330°
2026-05-04 19:33 52.16672 20.96622 338 ft 89 kts 332°
2026-05-04 19:33 52.17038 20.96305 342 ft 27 kts 338°
2026-05-04 19:34 52.17207 20.96241 344 ft 25 kts
2026-05-04 19:34 52.17363 20.96265 344 ft 15 kts 25°
2026-05-04 19:34 52.17436 20.96414 340 ft 18 kts 63°
2026-05-04 19:34 52.17458 20.96559 341 ft 10 kts 124°
2026-05-04 19:35 52.17397 20.96636 341 ft 10 kts 122°
2026-05-04 19:35 52.17387 20.96750 343 ft 7 kts 91°
2026-05-04 19:35 52.17387 20.96788 344 ft 0 kts 90°